Regional Weather Roundup
Issued by NWS Boston, MA

Home | Current Version | Previous Version | Text Only | Print | Product List | Glossary On
Versions: 1 2 3 4 5 6 7 8 9 10 11 12 13 14 15 16 17 18 19 20 21 22 23 24 25 26 27 28 29 30 31 32 33 34 35 36 37 38 39 40 41 42 43 44 45 46 47 48 49 50
000
ASUS41 KBOX 231710
RWRBOX

REGIONAL WEATHER ROUNDUP
NATIONAL WEATHER SERVICE TAUNTON MA
1200 PM EST SUN NOV 23 2014

NOTE:  "FAIR" INDICATES FEW OR NO CLOUDS BELOW 12,000 FEET WITH NO
SIGNIFICANT WEATHER AND/OR OBSTRUCTIONS TO VISIBILITY.  THE FOLLOWING
OBSERVATION LOCATIONS DO NOT REPORT PRESENT WEATHER...PROVINCETOWN...
SMITHFIELD...BLOCK ISLAND...KEENE...AND OXFORD.

MAZALL-231800-
EASTERN MASSACHUSETTS

CITY           SKY/WX    TMP DP  RH WIND       PRES   REMARKS
BOSTON         MOSUNNY   56  34  43 W7        30.11F
BEVERLY        MOSUNNY   57  35  43 W14       30.10F
LAWRENCE       SUNNY     55  35  47 SW12      30.11F
BEDFORD        SUNNY     56  34  43 SW12      30.10F
BLUE HILL        N/A     55  34  45 SW9G18    30.10F
NORWOOD        SUNNY     58  33  39 W12       30.12F
MARSHFIELD     SUNNY    N/A N/A N/A SW6       30.13F
PLYMOUTH       SUNNY     55  34  45 SW9       30.14F
TAUNTON        SUNNY     55  33  43 VRB6      30.14F
NEW BEDFORD    MOSUNNY   53  33  46 W12       30.14F
$$

MAZALL-231800-
CAPE COD AND THE ISLANDS

CITY           SKY/WX    TMP DP  RH WIND       PRES   REMARKS
FALMOUTH       PTSUNNY   54  34  47 SW17      30.15F
HYANNIS        SUNNY     57  36  45 SW18      30.13F
CHATHAM        SUNNY     55  38  52 W16G26    30.15F
PROVINCETOWN   PTSUNNY   52  37  58 SW13      30.13F
NANTUCKET      MOSUNNY   58  42  55 W22G30    30.16F
MARTHAS VNYRD  MOSUNNY   55  39  54 W15G25    30.15F
$$

MAZALL-231800-
CENTRAL AND WESTERN MASSACHUSETTS

CITY           SKY/WX    TMP DP  RH WIND       PRES   REMARKS
WORCESTER      SUNNY     52  33  48 SW9       30.12F
FITCHBURG      SUNNY     55  33  43 SW7       30.11F
ORANGE         SUNNY     52  32  46 S8        30.11F
SPRINGFIELD    SUNNY     53  28  37 S6        30.12F
WESTFIELD      MOSUNNY   54  28  36 S5        30.12F
NORTH ADAMS    MOSUNNY   50  38  63 E3        30.09F
PITTSFIELD     MOSUNNY   48  37  65 NE5       30.09F
$$

RIZALL-231800-
RHODE ISLAND

CITY           SKY/WX    TMP DP  RH WIND       PRES   REMARKS
PROVIDENCE     MOSUNNY   55  31  39 SW10      30.15F
NEWPORT        CLOUDY    53  33  46 VRB5      30.15F
BLOCK ISLAND   PTSUNNY   54  37  54 W18G24    30.16F
SMITHFIELD     SUNNY     55  28  35 SW6       30.13F
WESTERLY       MOSUNNY   51  32  48 VRB7G17   30.17F
$$

CTZALL-231800-
CONNECTICUT

CITY           SKY/WX    TMP DP  RH WIND       PRES   REMARKS
BRADLEY INTL   PTSUNNY   54  25  32 S9        30.12F
HARTFORD       PTSUNNY   54  25  32 S7        30.13F
BRIDGEPORT     MOSUNNY   50  32  50 SW9       30.16F
DANBURY        SUNNY     53  24  32 VRB5      30.14F
GROTON         MOSUNNY   52  32  46 W8        30.15F
NEW HAVEN      MOSUNNY   51  31  46 SW7       30.16F
CHESTER        FAIR      52  32  46 SW6       30.15F
MERIDEN        SUNNY     53  25  33 S7        30.14F
WILLIMANTIC    MOSUNNY   57  27  31 S7        30.15F
OXFORD         MOSUNNY   54  27  35 SW5       30.13F
$$

MEZ002-015-021-024-NHZ003-005-008-011-012-014-VTZ005-008-231800-
NORTHERN NEW ENGLAND

CITY           SKY/WX    TMP DP  RH WIND       PRES   REMARKS
PORTLAND ME    MOSUNNY   56  39  53 SW7       30.06F
BANGOR ME      PTSUNNY   49  32  52 CALM      30.06S
CONCORD NH     MOSUNNY   55  39  54 SW9       30.07F
MANCHESTER NH  MOSUNNY   56  39  53 W10G17    30.07F
NASHUA NH      SUNNY     57  40  53 W7        30.10F
PORTSMOUTH NH  MOSUNNY   56  39  53 W10       30.07F
JAFFREY NH     CLOUDY    49  35  58 SW7       30.10F
KEENE NH       CLOUDY    50  34  53 S3        30.10F
BURLINGTON VT  CLOUDY    48  38  68 S14       30.04F
MT. WASHINGTON FOG       27  27 100 W52G59      N/A  VSB 0   WCI   6
$$

NYZ052-076-231800-
EASTERN NEW YORK

CITY           SKY/WX    TMP DP  RH WIND       PRES   REMARKS
ALBANY         MOSUNNY   52  29  41 S7        30.10F
NEW YORK CITY  PTSUNNY   52  25  35 SW5       30.15F
$$

ANZALL-231800-
MARINE OBSERVATIONS

STATION/POSITION TIME  TEMP    WIND        PRES    VSBY  WAVE
                       AIR SEA DIR/SP/G                  HT/PER
                 (UTC) (F)     (DEG/KT/KT) (MB)    (MI)  (FT/S)
BOSTON BUOY      1650   51 50  240/  8/ 10 1019.6F         1/ 3
BUZZARDS BAY     1600          240/ 19/ 22 1022.1F
NANTUCKET SOUND  1650   51 48  250/ 17/ 19 1020.5F         3/ 4
MASS BAY-STELLWA 1604   48 50  220/ 14/ 17   N/A    1 5/8  2/ 4
ISLE OF SHOALS   1700   50     220/ 12/ 13 1018.2F
S OF BLOCK IS    1608      56                N/A           9/ 8
$$

......................KEY.........................
  SKY/WX - SKY CONDITION/PRESENT WEATHER
  TMP    - TEMPERATURE IN FAHRENHEIT
  DWPT   - DEWPOINT IN FAHRENHEIT
  RH     - RELATIVE HUMIDITY IN PERCENT
  WIND   - DIRECTION AND SPEED IN MPH
  PRES   - MEAN SEA LEVEL PRESSURE IN INCHES OF HG
  WCI    - WIND CHILL INDEX
  VSB    - VISIBILITY IN MILES
  HX     - HEAT INDEX
  TC     - TEMPERATURE IN CELSIUS
  VRB    - VARIABLE WIND DIRECTION
  N/A    - NOT AVAILABLE



USA.gov is the U.S. government's official web portal to all federal, state and local government web resources and services.